Time,TemperatureF,DewpointF,PressureIn,WindDirection,WindDirectionDegrees,WindSpeedMPH,WindSpeedGustMPH,Humidity,HourlyPrecipIn,Conditions,Clouds,dailyrainin,SoftwareType,DateUTC
2013-03-06 00:14:00,43.8,16.0,30.35,NE,53,2.0,3.0,33,0.00,,,0.00,weatherlink.com 1.10,2013-03-06 06:14:00,
2013-03-06 00:29:00,42.8,15.0,30.35,NNE,29,2.0,2.0,33,0.00,,,0.00,weatherlink.com 1.10,2013-03-06 06:29:00,
2013-03-06 00:44:00,42.6,16.0,30.35,NNE,23,2.0,3.0,34,0.00,,,0.00,weatherlink.com 1.10,2013-03-06 06:44:00,
2013-03-06 00:59:00,42.3,16.0,30.35,NNE,20,3.0,3.0,34,0.00,,,0.00,weatherlink.com 1.10,2013-03-06 06:59:00,
2013-03-06 01:15:00,41.8,16.0,30.35,NNE,23,2.0,4.0,35,0.00,,,0.00,weatherlink.com 1.10,2013-03-06 07:15:00,
2013-03-06 01:29:00,41.6,16.0,30.35,NNE,19,2.0,3.0,36,0.00,,,0.00,weatherlink.com 1.10,2013-03-06 07:29:00,
2013-03-06 01:45:00,41.3,17.0,30.35,North,1,4.0,5.0,37,0.00,,,0.00,weatherlink.com 1.10,2013-03-06 07:45:00,
2013-03-06 02:00:00,41.2,17.0,30.35,North,1,3.0,6.0,38,0.00,,,0.00,weatherlink.com 1.10,2013-03-06 08:00:00,
2013-03-06 02:15:00,40.9,17.0,30.35,NNE,20,3.0,4.0,38,0.00,,,0.00,weatherlink.com 1.10,2013-03-06 08:15:00,
2013-03-06 02:30:00,40.5,17.0,30.35,NNE,27,5.0,7.0,39,0.00,,,0.00,weatherlink.com 1.10,2013-03-06 08:30:00,
2013-03-06 02:45:00,40.7,17.0,30.35,NNE,12,3.0,7.0,39,0.00,,,0.00,weatherlink.com 1.10,2013-03-06 08:45:00,
2013-03-06 03:00:00,40.8,17.0,30.34,North,356,3.0,7.0,39,0.00,,,0.00,weatherlink.com 1.10,2013-03-06 09:00:00,
2013-03-06 03:15:00,40.4,18.0,30.34,NNE,28,8.0,8.0,40,0.00,,,0.00,weatherlink.com 1.10,2013-03-06 09:15:00,
2013-03-06 03:30:00,40.6,17.0,30.34,NNE,23,5.0,6.0,39,0.00,,,0.00,weatherlink.com 1.10,2013-03-06 09:30:00,
2013-03-06 03:45:00,40.6,17.0,30.35,NNE,26,7.0,7.0,39,0.00,,,0.00,weatherlink.com 1.10,2013-03-06 09:45:00,
2013-03-06 04:00:00,39.9,17.0,30.35,NNE,26,3.0,7.0,40,0.00,,,0.00,weatherlink.com 1.10,2013-03-06 10:00:00,
2013-03-06 04:15:00,39.2,17.0,30.35,NNE,33,4.0,6.0,41,0.00,,,0.00,weatherlink.com 1.10,2013-03-06 10:15:00,
2013-03-06 04:30:00,38.9,18.0,30.35,NE,56,3.0,5.0,43,0.00,,,0.00,weatherlink.com 1.10,2013-03-06 10:30:00,
2013-03-06 04:45:00,38.1,18.0,30.36,NE,54,3.0,4.0,44,0.00,,,0.00,weatherlink.com 1.10,2013-03-06 10:45:00,
2013-03-06 05:00:00,37.4,18.0,30.36,NNE,30,4.0,5.0,45,0.00,,,0.00,weatherlink.com 1.10,2013-03-06 11:00:00,
2013-03-06 05:15:00,37.3,18.0,30.37,NNE,32,5.0,6.0,45,0.00,,,0.00,weatherlink.com 1.10,2013-03-06 11:15:00,
2013-03-06 05:30:00,37.7,18.0,30.38,NNE,30,4.0,5.0,45,0.00,,,0.00,weatherlink.com 1.10,2013-03-06 11:30:00,
2013-03-06 05:45:00,37.3,18.0,30.39,NE,36,4.0,6.0,46,0.00,,,0.00,weatherlink.com 1.10,2013-03-06 11:45:00,
2013-03-06 06:00:00,37.1,18.0,30.39,NE,49,5.0,6.0,47,0.00,,,0.00,weatherlink.com 1.10,2013-03-06 12:00:00,
2013-03-06 06:15:00,37.1,18.0,30.39,NE,51,4.0,6.0,47,0.00,,,0.00,weatherlink.com 1.10,2013-03-06 12:15:00,
2013-03-06 06:30:00,35.3,18.0,30.39,ENE,67,3.0,4.0,49,0.00,,,0.00,weatherlink.com 1.10,2013-03-06 12:30:00,
2013-03-06 06:45:00,34.6,18.0,30.40,NE,53,3.0,4.0,51,0.00,,,0.00,weatherlink.com 1.10,2013-03-06 12:45:00,
2013-03-06 07:00:00,35.2,19.0,30.40,ENE,68,4.0,4.0,51,0.00,,,0.00,weatherlink.com 1.10,2013-03-06 13:00:00,
2013-03-06 07:15:00,36.0,19.0,30.41,ENE,74,2.0,3.0,50,0.00,,,0.00,weatherlink.com 1.10,2013-03-06 13:15:00,
2013-03-06 07:30:00,38.0,20.0,30.42,East,89,2.0,2.0,49,0.00,,,0.00,weatherlink.com 1.10,2013-03-06 13:30:00,
2013-03-06 07:45:00,39.9,20.0,30.43,East,99,2.0,3.0,45,0.00,,,0.00,weatherlink.com 1.10,2013-03-06 13:45:00,
2013-03-06 08:01:00,41.0,21.0,30.44,NE,56,6.0,7.0,46,0.00,,,0.00,weatherlink.com 1.10,2013-03-06 14:01:00,
2013-03-06 08:16:00,43.0,22.0,30.44,ENE,58,7.0,12.0,43,0.00,,,0.00,weatherlink.com 1.10,2013-03-06 14:16:00,
2013-03-06 08:31:00,43.9,22.0,30.44,NE,53,9.0,14.0,42,0.00,,,0.00,weatherlink.com 1.10,2013-03-06 14:31:00,
2013-03-06 08:46:00,44.5,23.0,30.44,ENE,68,8.0,12.0,43,0.00,,,0.00,weatherlink.com 1.10,2013-03-06 14:46:00,
2013-03-06 09:01:00,46.1,23.0,30.44,NE,47,8.0,15.0,40,0.00,,,0.00,weatherlink.com 1.10,2013-03-06 15:01:00,
2013-03-06 09:16:00,46.9,22.0,30.45,NE,44,14.0,17.0,38,0.00,,,0.00,weatherlink.com 1.10,2013-03-06 15:16:00,
2013-03-06 09:31:00,47.9,23.0,30.45,NNE,29,9.0,15.0,37,0.00,,,0.00,weatherlink.com 1.10,2013-03-06 15:31:00,
2013-03-06 09:46:00,48.5,22.0,30.46,ENE,72,13.0,14.0,36,0.00,,,0.00,weatherlink.com 1.10,2013-03-06 15:46:00,
2013-03-06 10:01:00,50.2,22.0,30.45,ENE,68,13.0,16.0,33,0.00,,,0.00,weatherlink.com 1.10,2013-03-06 16:01:00,
2013-03-06 10:16:00,51.0,23.0,30.46,NE,44,7.0,17.0,33,0.00,,,0.00,weatherlink.com 1.10,2013-03-06 16:16:00,
2013-03-06 10:31:00,52.2,23.0,30.45,NE,50,11.0,13.0,32,0.00,,,0.00,weatherlink.com 1.10,2013-03-06 16:31:00,
2013-03-06 10:46:00,52.9,23.0,30.45,NE,49,11.0,14.0,31,0.00,,,0.00,weatherlink.com 1.10,2013-03-06 16:46:00,
2013-03-06 11:01:00,53.5,22.0,30.45,NNE,18,10.0,16.0,29,0.00,,,0.00,weatherlink.com 1.10,2013-03-06 17:01:00,
2013-03-06 11:16:00,54.0,21.0,30.44,ENE,63,9.0,14.0,27,0.00,,,0.00,weatherlink.com 1.10,2013-03-06 17:16:00,
2013-03-06 11:31:00,55.0,22.0,30.44,NE,44,9.0,14.0,28,0.00,,,0.00,weatherlink.com 1.10,2013-03-06 17:31:00,
2013-03-06 11:46:00,55.7,21.0,30.43,East,90,3.0,15.0,26,0.00,,,0.00,weatherlink.com 1.10,2013-03-06 17:46:00,
2013-03-06 12:01:00,57.0,22.0,30.42,NE,39,5.0,13.0,26,0.00,,,0.00,weatherlink.com 1.10,2013-03-06 18:01:00,
2013-03-06 12:16:00,57.9,21.0,30.40,ENE,63,8.0,11.0,24,0.00,,,0.00,weatherlink.com 1.10,2013-03-06 18:16:00,
2013-03-06 12:31:00,58.3,22.0,30.39,ENE,63,5.0,11.0,25,0.00,,,0.00,weatherlink.com 1.10,2013-03-06 18:31:00,
2013-03-06 12:46:00,59.3,21.0,30.38,ESE,108,1.0,11.0,23,0.00,,,0.00,weatherlink.com 1.10,2013-03-06 18:46:00,
2013-03-06 13:01:00,60.6,21.0,30.37,ESE,113,5.0,9.0,22,0.00,,,0.00,weatherlink.com 1.10,2013-03-06 19:01:00,
2013-03-06 13:16:00,61.6,23.0,30.35,NE,44,10.0,11.0,23,0.00,,,0.00,weatherlink.com 1.10,2013-03-06 19:16:00,
2013-03-06 13:31:00,62.1,20.0,30.34,East,86,6.0,12.0,20,0.00,,,0.00,weatherlink.com 1.10,2013-03-06 19:31:00,
2013-03-06 13:46:00,62.3,22.0,30.33,NW,324,1.0,7.0,21,0.00,,,0.00,weatherlink.com 1.10,2013-03-06 19:46:00,
2013-03-06 14:02:00,63.0,21.0,30.31,NE,43,6.0,9.0,20,0.00,,,0.00,weatherlink.com 1.10,2013-03-06 20:02:00,
2013-03-06 14:17:00,64.0,21.0,30.30,ENE,65,8.0,11.0,19,0.00,,,0.00,weatherlink.com 1.10,2013-03-06 20:17:00,
2013-03-06 14:32:00,64.2,20.0,30.28,SE,130,4.0,9.0,18,0.00,,,0.00,weatherlink.com 1.10,2013-03-06 20:32:00,
2013-03-06 14:47:00,64.0,18.0,30.28,East,79,5.0,8.0,17,0.00,,,0.00,weatherlink.com 1.10,2013-03-06 20:47:00,
2013-03-06 15:02:00,64.0,15.0,30.28,SSE,152,3.0,8.0,15,0.00,,,0.00,weatherlink.com 1.10,2013-03-06 21:02:00,
2013-03-06 15:17:00,63.7,15.0,30.27,ESE,118,6.0,7.0,15,0.00,,,0.00,weatherlink.com 1.10,2013-03-06 21:17:00,
2013-03-06 15:32:00,63.3,15.0,30.27,East,82,2.0,7.0,15,0.00,,,0.00,weatherlink.com 1.10,2013-03-06 21:32:00,
2013-03-06 15:47:00,63.0,17.0,30.27,SE,140,2.0,5.0,17,0.00,,,0.00,weatherlink.com 1.10,2013-03-06 21:47:00,
2013-03-06 16:02:00,62.9,19.0,30.25,East,88,2.0,7.0,18,0.00,,,0.00,weatherlink.com 1.10,2013-03-06 22:02:00,
2013-03-06 16:17:00,62.7,18.0,30.24,SSE,160,5.0,7.0,18,0.00,,,0.00,weatherlink.com 1.10,2013-03-06 22:17:00,
2013-03-06 16:32:00,62.9,17.0,30.25,SSE,162,2.0,8.0,17,0.00,,,0.00,weatherlink.com 1.10,2013-03-06 22:32:00,
2013-03-06 16:47:00,62.6,18.0,30.25,SSE,153,3.0,8.0,18,0.00,,,0.00,weatherlink.com 1.10,2013-03-06 22:47:00,
2013-03-06 17:02:00,62.4,18.0,30.25,SSE,160,2.0,5.0,18,0.00,,,0.00,weatherlink.com 1.10,2013-03-06 23:02:00,
2013-03-06 17:17:00,62.3,19.0,30.24,SSE,149,2.0,5.0,19,0.00,,,0.00,weatherlink.com 1.10,2013-03-06 23:17:00,
2013-03-06 17:32:00,61.8,20.0,30.24,SE,124,2.0,5.0,20,0.00,,,0.00,weatherlink.com 1.10,2013-03-06 23:32:00,
2013-03-06 17:47:00,61.8,20.0,30.24,SSE,163,1.0,6.0,20,0.00,,,0.00,weatherlink.com 1.10,2013-03-06 23:47:00,
2013-03-06 18:02:00,61.7,20.0,30.25,SSE,163,1.0,4.0,20,0.00,,,0.00,weatherlink.com 1.10,2013-03-07 00:02:00,
2013-03-06 18:17:00,61.0,21.0,30.25,SSE,160,1.0,3.0,21,0.00,,,0.00,weatherlink.com 1.10,2013-03-07 00:17:00,
2013-03-06 18:32:00,59.2,21.0,30.24,SSE,160,0.0,0.0,23,0.00,,,0.00,weatherlink.com 1.10,2013-03-07 00:32:00,
2013-03-06 18:47:00,57.7,20.0,30.25,SSE,160,0.0,0.0,23,0.00,,,0.00,weatherlink.com 1.10,2013-03-07 00:47:00,
2013-03-06 19:02:00,55.4,20.0,30.24,SSE,161,0.0,0.0,25,0.00,,,0.00,weatherlink.com 1.10,2013-03-07 01:02:00,
2013-03-06 19:17:00,55.0,21.0,30.23,SSE,160,0.0,0.0,27,0.00,,,0.00,weatherlink.com 1.10,2013-03-07 01:17:00,
2013-03-06 19:32:00,55.0,22.0,30.23,SE,136,1.0,1.0,28,0.00,,,0.00,weatherlink.com 1.10,2013-03-07 01:32:00,
2013-03-06 19:47:00,54.6,23.0,30.23,SE,137,0.0,0.0,29,0.00,,,0.00,weatherlink.com 1.10,2013-03-07 01:47:00,
2013-03-06 20:17:00,55.6,24.0,30.25,South,169,0.0,1.0,29,0.00,,,0.00,weatherlink.com 1.10,2013-03-07 02:17:00,
2013-03-06 20:32:00,55.8,23.0,30.25,SSE,155,1.0,3.0,28,0.00,,,0.00,weatherlink.com 1.10,2013-03-07 02:32:00,
2013-03-06 20:47:00,54.9,23.0,30.24,SSE,156,1.0,3.0,29,0.00,,,0.00,weatherlink.com 1.10,2013-03-07 02:47:00,
2013-03-06 21:02:00,54.6,23.0,30.24,SSE,152,1.0,2.0,29,0.00,,,0.00,weatherlink.com 1.10,2013-03-07 03:02:00,
2013-03-06 21:17:00,53.9,23.0,30.25,SSE,163,0.0,3.0,30,0.00,,,0.00,weatherlink.com 1.10,2013-03-07 03:17:00,
2013-03-06 21:32:00,53.5,23.0,30.25,SSE,161,1.0,3.0,31,0.00,,,0.00,weatherlink.com 1.10,2013-03-07 03:32:00,
2013-03-06 21:47:00,52.9,23.0,30.25,SSE,150,0.0,1.0,31,0.00,,,0.00,weatherlink.com 1.10,2013-03-07 03:47:00,
2013-03-06 22:02:00,52.2,23.0,30.25,SSE,158,1.0,2.0,32,0.00,,,0.00,weatherlink.com 1.10,2013-03-07 04:02:00,
2013-03-06 22:17:00,53.7,28.0,30.24,SSE,162,6.0,11.0,37,0.00,,,0.00,weatherlink.com 1.10,2013-03-07 04:17:00,
2013-03-06 22:32:00,53.2,30.0,30.24,South,172,6.0,9.0,41,0.00,,,0.00,weatherlink.com 1.10,2013-03-07 04:32:00,
2013-03-06 22:47:00,52.5,32.0,30.25,South,174,6.0,10.0,45,0.00,,,0.00,weatherlink.com 1.10,2013-03-07 04:47:00,
2013-03-06 23:02:00,51.8,34.0,30.25,SSE,165,6.0,9.0,50,0.00,,,0.00,weatherlink.com 1.10,2013-03-07 05:02:00,
2013-03-06 23:17:00,51.4,35.0,30.24,SSE,147,6.0,11.0,53,0.00,,,0.00,weatherlink.com 1.10,2013-03-07 05:17:00,
2013-03-06 23:32:00,50.2,33.0,30.24,South,174,4.0,5.0,53,0.00,,,0.00,weatherlink.com 1.10,2013-03-07 05:32:00,
2013-03-06 23:47:00,49.5,34.0,30.23,SSE,160,2.0,6.0,56,0.00,,,0.00,weatherlink.com 1.10,2013-03-07 05:47:00,